Uribyol 2 - Orbit

View from above orbital plane
View from above orbital plane
View from above satellite
View from above satellite

Ground track
Ground track

The orbit data is extracted from the following two-line orbital elements,

1 22828U 93061F   13139.88866821  .00000151  00000-0  75476-4 0  3348
2 22828 098.6035 083.9870 0009267 342.6047 054.6209 14.30118934993034
Epoch (UTC): 19 May 2013 21:19:40
Eccentricity: 0.0009267
inclination: 98.6035°
perigee height: 784 km
apogee height: 798 km
right ascension of ascending node: 83.9870°
argument of perigee: 342.6047°
revolutions per day: 14.30118934
mean anomaly at epoch: 54.6209°
orbit number at epoch: 99303

The dashed part of the orbit path shows where the satellite is in the earth's shadow,  

Developed and maintained by Chris Peat, Heavens-Above GmbH. Please read the updated FAQ before sending e-mail. Imprint. DLR